TimeCST,TemperatureF,Dew PointF,Humidity,Sea Level PressureIn,VisibilityMPH,Wind Direction,Wind SpeedMPH,Gust SpeedMPH,PrecipitationIn,Events,Conditions,WindDirDegrees,DateUTC
12:53 AM,48.9,39.9,71,30.10,10.0,Calm,Calm,-,N/A,,Clear,0,2014-02-22 06:53:00
1:53 AM,50.0,41.0,71,30.08,10.0,Calm,Calm,-,N/A,,Clear,0,2014-02-22 07:53:00
2:53 AM,50.0,41.0,71,30.07,10.0,North,4.6,-,N/A,,Clear,10,2014-02-22 08:53:00
3:53 AM,48.9,41.0,74,30.05,10.0,Calm,Calm,-,N/A,,Clear,0,2014-02-22 09:53:00
4:53 AM,48.0,41.0,77,30.05,10.0,NE,3.5,-,N/A,,Clear,40,2014-02-22 10:53:00
5:53 AM,48.0,41.0,77,30.06,10.0,NE,3.5,-,N/A,,Clear,50,2014-02-22 11:53:00
6:53 AM,48.9,42.1,77,30.08,10.0,East,4.6,-,N/A,,Clear,80,2014-02-22 12:53:00
7:53 AM,54.0,46.9,77,30.08,10.0,ESE,5.8,-,N/A,,Clear,120,2014-02-22 13:53:00
8:53 AM,61.0,46.9,60,30.09,10.0,ESE,10.4,-,N/A,,Clear,120,2014-02-22 14:53:00
9:53 AM,64.9,48.9,56,30.09,10.0,ESE,13.8,-,N/A,,Clear,110,2014-02-22 15:53:00
10:53 AM,68.0,50.0,52,30.07,10.0,ESE,11.5,20.7,N/A,,Clear,120,2014-02-22 16:53:00
11:53 AM,69.1,48.9,49,30.07,10.0,SE,13.8,-,N/A,,Clear,130,2014-02-22 17:53:00
12:53 PM,70.0,51.1,51,30.04,10.0,SE,13.8,21.9,N/A,,Clear,130,2014-02-22 18:53:00
1:53 PM,69.1,52.0,54,30.01,10.0,SE,15.0,-,N/A,,Clear,130,2014-02-22 19:53:00
2:53 PM,68.0,53.1,59,29.98,10.0,SSE,11.5,21.9,N/A,,Clear,150,2014-02-22 20:53:00
3:29 PM,68.0,53.1,59,29.98,10.0,ESE,12.7,-,N/A,,Mostly Cloudy,120,2014-02-22 21:29:00
3:53 PM,68.0,53.1,59,29.97,10.0,SE,12.7,-,N/A,,Partly Cloudy,140,2014-02-22 21:53:00
4:53 PM,66.0,53.1,63,29.96,10.0,SE,9.2,-,N/A,,Clear,130,2014-02-22 22:53:00
5:53 PM,64.9,53.1,65,29.96,10.0,ESE,8.1,-,N/A,,Mostly Cloudy,120,2014-02-22 23:53:00
6:53 PM,64.0,52.0,65,29.96,10.0,SE,10.4,-,N/A,,Overcast,130,2014-02-23 00:53:00
7:53 PM,63.0,53.1,70,29.97,10.0,ESE,5.8,-,N/A,,Overcast,120,2014-02-23 01:53:00
8:53 PM,63.0,54.0,72,29.97,10.0,SE,5.8,-,N/A,,Overcast,130,2014-02-23 02:53:00
9:04 PM,63.0,54.0,72,29.97,10.0,ESE,6.9,-,N/A,,Overcast,120,2014-02-23 03:04:00
9:21 PM,63.0,54.0,72,29.97,10.0,ESE,5.8,-,N/A,,Overcast,120,2014-02-23 03:21:00
9:53 PM,63.0,55.0,75,29.97,10.0,ESE,5.8,-,N/A,,Overcast,110,2014-02-23 03:53:00
10:31 PM,63.0,55.0,75,29.97,10.0,East,4.6,-,N/A,,Overcast,90,2014-02-23 04:31:00
10:51 PM,62.6,55.4,77,29.97,10.0,East,4.6,-,N/A,,Overcast,100,2014-02-23 04:51:00
10:53 PM,63.0,55.9,78,29.96,10.0,East,4.6,-,N/A,,Overcast,90,2014-02-23 04:53:00
11:53 PM,62.1,57.0,84,29.95,8.0,ESE,5.8,-,N/A,,Overcast,110,2014-02-23 05:53:00